This is the latest recevied weather packets stored in our database for station/object W1HS. If no packets are shown the sender has not sent any weather packets the latest 10 day(s).
| Time | Temp. | Humidity | Pressure | Rain* | Wind** | Luminosity | Snow |
|---|---|---|---|---|---|---|---|
| 1777600938 | 8.33° C | 95% | 988.6 hPa | 2.03 mm | - | 0 W/m² | - |
| 1777600338 | 8.33° C | 95% | 988.6 hPa | 1.52 mm | - | 0 W/m² | - |
| 1777599739 | 8.89° C | 95% | 988.4 hPa | 1.02 mm | - | 0 W/m² | - |
| 1777599138 | 8.89° C | 95% | 988.3 hPa | 0.51 mm | - | 0 W/m² | - |
| 1777598538 | 8.89° C | 95% | 988.2 hPa | 0.51 mm | - | 0 W/m² | - |
| 1777598027 | 8.89° C | 95% | 988.2 hPa | 0.51 mm | - | 0 W/m² | - |
| 1777597398 | 8.89° C | 95% | 988.1 hPa | 0.51 mm | - | 0 W/m² | - |
| 1777596798 | 8.89° C | 95% | 987.8 hPa | 0.51 mm | - | 0 W/m² | - |
| 1777596198 | 8.89° C | 95% | 987.6 hPa | 0.51 mm | - | 0 W/m² | - |
| 1777595598 | 8.89° C | 95% | 987.5 hPa | 0.51 mm | - | 0 W/m² | - |
| 1777594998 | 8.89° C | 95% | 987.3 hPa | 0.25 mm | - | 0 W/m² | - |
| 1777594398 | 8.89° C | 95% | 987.2 hPa | 0 mm | - | 0 W/m² | - |
| 1777593798 | 9.44° C | 95% | 987.1 hPa | 0 mm | - | 0 W/m² | - |
| 1777593198 | 9.44° C | 95% | 986.9 hPa | 0 mm | - | 0 W/m² | - |
| 1777592598 | 9.44° C | 95% | 986.9 hPa | 0 mm | - | 0 W/m² | - |
| 1777592000 | 9.44° C | 95% | 986.9 hPa | 0 mm | - | 0 W/m² | - |
| 1777591398 | 10° C | 95% | 986.9 hPa | 0 mm | - | 0 W/m² | - |
| 1777590798 | 10° C | 95% | 986.6 hPa | 0 mm | - | 12 W/m² | - |
| 1777590200 | 10° C | 95% | 986.6 hPa | 0 mm | - | 20 W/m² | - |
| 1777589598 | 10° C | 95% | 986.4 hPa | 0 mm | - | 14 W/m² | - |
| 1777588998 | 10° C | 95% | 986.4 hPa | 0 mm | - | 16 W/m² | - |
| 1777588398 | 10° C | 95% | 986.4 hPa | 0 mm | - | 30 W/m² | - |
| 1777587800 | 10° C | 94% | 986.3 hPa | 0 mm | - | 84 W/m² | - |
| 1777587198 | 10° C | 94% | 986.2 hPa | 0 mm | - | 74 W/m² | - |
| 1777586600 | 10° C | 94% | 986.2 hPa | 0 mm | - | 39 W/m² | - |
* Rain latest hour (hover to see other rain measurements)
** Current wind speed in m/s (hover to see current wind gust speed)